Simultaneous Nadir Overpasses (SNOs) Predictions

Prediction of SNOs between AQUA and METOP-C Satellite Orbit:

Table of predicted SNOs for the next 14.0 days since TLE Epoch: 5/15/2021
Index Date (AQUA) Time (AQUA) Lat,Lon (AQUA) SZA (AQUA ) Date (METOP-C) Time (METOP-C) Lat,Lon (METOP-C) SZA (METOP-C ) Distance(km) Time Diff (sec)
1 05/15/2021 20:58:10 -73.66, 40.02 125.45 05/15/2021 20:56:57 -73.57, 39.74 125.52 12.91 73
2 05/15/2021 21:47:39 73.75,-152.54 54.64 05/15/2021 21:47:33 73.77,-152.48 54.66 2.80 6
3 05/15/2021 22:37:06 -73.81, 14.97 125.31 05/15/2021 22:38:14 -73.80, 14.93 125.32 1.59 68
4 05/18/2021 16:32:26 -73.70, 106.36 126.03 05/18/2021 16:31:17 -73.67, 106.38 126.05 3.22 69
5 05/18/2021 17:21:54 73.75, -86.10 54.01 05/18/2021 17:21:55 73.76, -86.09 54.02 1.22 1
6 05/18/2021 18:11:22 -73.85, 81.31 125.89 05/18/2021 18:12:35 -73.85, 81.46 125.90 4.72 73
7 05/21/2021 12:06:41 -73.70, 172.80 126.62 05/21/2021 12:05:39 -73.67, 172.79 126.64 3.41 62
8 05/21/2021 12:56:09 73.76, -19.68 53.43 05/21/2021 12:56:17 73.75, -19.71 53.43 1.18 8
9 05/21/2021 13:45:42 -74.11, 147.16 126.19 05/21/2021 13:46:52 -74.10, 148.46 126.25 39.80 70
10 05/24/2021 07:40:55 -73.71,-120.79 127.14 05/24/2021 07:39:59 -73.72,-120.70 127.13 2.80 56
11 05/24/2021 08:30:23 73.77, 46.73 52.91 05/24/2021 08:30:37 73.79, 46.79 52.93 2.50 14
12 05/24/2021 09:20:01 -74.38,-147.03 126.45 05/24/2021 09:21:08 -74.34,-144.52 126.56 75.27 67
13 05/27/2021 03:15:10 -73.73, -54.39 127.61 05/27/2021 03:14:21 -73.71, -54.31 127.63 3.14 49
14 05/27/2021 04:04:38 73.79, 113.12 52.45 05/27/2021 04:04:59 73.77, 113.16 52.42 2.89 21



Historial Predications of SNOs between AQUA and METOP-C
